Printer-friendly version

IAU Minor Planet Center

Minor Planet Center

MPEC 2001-U35: 2001 UC5

The following Minor Planet Electronic Circular may be linked-to from your own Web pages, but must not otherwise be redistributed electronically.


Read MPEC 2001-U34 Read MPEC 2001-U36


M.P.E.C. 2001-U35                                Issued 2001 Oct. 22, 17:57 UT

     The Minor Planet Electronic Circulars contain information on unusual
         minor planets and routine data on comets.  They are published
   on behalf of Commission 20 of the International Astronomical Union by the
          Minor Planet Center, Smithsonian Astrophysical Observatory,
                          Cambridge, MA 02138, U.S.A.

             Prepared using the Tamkin Foundation Computer Network

                              MPC@CFA.HARVARD.EDU
          URL http://cfa-www.harvard.edu/iau/mpc.html  ISSN 1523-6714

                                   2001 UC5

Observations:
     K01U05C* C2001 10 20.25092 02 00 55.05 -01 43 45.0          16.6        704
     K01U05C  C2001 10 20.26750 02 00 45.40 -01 36 03.3          16.6        704
     K01U05C  C2001 10 20.28392 02 00 35.78 -01 28 24.5          16.6        704
     K01U05C  C2001 10 20.30030 02 00 26.14 -01 20 44.7          16.6        704
     K01U05C  C2001 10 20.31680 02 00 16.43 -01 13 01.8          16.8        704
     K01U05C  C2001 10 21.24021 01 51 18.84 +06 30 54.5          16.5        704
     K01U05C  C2001 10 21.24033 01 51 18.76 +06 30 58.8          16.3        704
     K01U05C  C2001 10 21.24044 01 51 18.66 +06 31 02.1          16.1        704
     K01U05C  C2001 10 21.24245 01 51 17.34 +06 32 06.5          16.3        704
     K01U05C  C2001 10 21.24270 01 51 17.15 +06 32 15.7          16.6        704
     K01U05C  C2001 10 21.24294 01 51 16.98 +06 32 22.0          16.3        704
     K01U05C  C2001 10 21.25641 01 51 07.88 +06 39 34.8          16.4        704
     K01U05C  C2001 10 21.25652 01 51 07.80 +06 39 38.5          16.4        704
     K01U05C  C2001 10 21.25664 01 51 07.66 +06 39 42.6          16.5        704
     K01U05C  C2001 10 21.26872 01 50 59.50 +06 46 12.7          16.7        704
     K01U05C  C2001 10 21.26897 01 50 59.33 +06 46 20.2          16.4        704
     K01U05C  C2001 10 21.26922 01 50 59.15 +06 46 27.0          16.4        704
     K01U05C  C2001 10 21.26947 01 50 59.00 +06 46 36.5          16.5        704
     K01U05C  C2001 10 21.27252 01 50 56.94 +06 48 13.9          16.8        704
     K01U05C  C2001 10 21.27264 01 50 56.84 +06 48 17.7          16.4        704
     K01U05C  C2001 10 21.27275 01 50 56.78 +06 48 19.9          16.3        704
     K01U05C  C2001 10 21.27286 01 50 56.69 +06 48 24.7          16.1        704
     K01U05C  C2001 10 21.28618 01 50 47.57 +06 55 35.0          16.4        704
     K01U05C  C2001 10 21.28643 01 50 47.40 +06 55 43.1          16.5        704
     K01U05C  C2001 10 21.28668 01 50 47.23 +06 55 49.9          16.6        704
     K01U05C  C2001 10 21.28693 01 50 47.11 +06 56 00.0          16.6        704
     K01U05C  C2001 10 21.29072 01 50 44.50 +06 58 01.0          16.8        704
     K01U05C  C2001 10 21.29085 01 50 44.40 +06 58 05.2          16.6        704
     K01U05C  C2001 10 21.29096 01 50 44.34 +06 58 07.4          16.5        704
     K01U05C  C2001 10 21.30278 01 50 36.24 +07 04 30.3          16.3        704
     K01U05C  C2001 10 21.30303 01 50 36.08 +07 04 39.7          16.8        704
     K01U05C  C2001 10 21.30328 01 50 35.92 +07 04 46.4          17.0        704
     K01U05C  C2001 10 21.30700 01 50 33.36 +07 06 47.3          16.6        704
     K01U05C  C2001 10 21.30713 01 50 33.24 +07 06 51.9          16.9        704
     K01U05C  C2001 10 21.30728 01 50 33.17 +07 06 55.4          16.6        704
     K01U05C  C2001 10 21.31922 01 50 24.98 +07 13 22.6          16.5        704
     K01U05C  C2001 10 21.31947 01 50 24.79 +07 13 31.7          16.5        704
     K01U05C  C2001 10 21.31972 01 50 24.63 +07 13 40.0          16.5        704

Observer details:
704 Lincoln Laboratory ETS, New Mexico.  Observers M. Blythe, F. Shelly,
    M. Bezpalko, R. Huber, L. Manguso, S. Adams, J. Piscitelli.  Measurers
    J. Stuart, R. Sayer, J. B. Evans, H. Viggh.  1.0-m f/2.15 reflector + CCD.

Orbital elements:
2001 UC5
Epoch 2001 Oct. 18.0 TT = JDT 2452200.5                 Spahr
M 354.75153              (2000.0)            P               Q
n   0.21954990     Peri.   23.97277     +0.63740392     -0.73207356
a   2.7213259      Node    28.37405     +0.59958483     +0.27529418
e   0.6242889      Incl.   30.38657     +0.48395689     +0.62312232
P   4.49           H   21.1           G   0.15
From 38 observations 2001 Oct. 20-21.

Ephemeris:
2001 UC5                 a,e,i = 2.72, 0.62, 30                  q = 1.0224
Date    TT    R. A. (2000) Decl.     Delta      r     Elong.  Phase     V
2001 10 18    02 18.05   -16 03.0    0.084    1.071   151.9    26.0    17.1
2001 10 23    01 29.89   +23 30.0    0.060    1.053   166.9    12.3    15.8
2001 10 28    23 38.59   +63 15.6    0.079    1.039   123.3    53.1    17.6
2001 11 02    20 31.3    +73 45.7    0.123    1.029   104.3    69.1    19.0
2001 11 07    18 31.5    +72 49.1    0.172    1.024    96.2    74.2    19.9
2001 11 12    17 39.0    +70 47.6    0.222    1.023    92.2    75.3    20.5
2001 11 17    17 12.50   +69 14.5    0.271    1.026    90.1    74.6    20.9
2001 11 22    16 56.87   +68 10.3    0.319    1.033    89.1    72.9    21.2
2001 11 27    16 46.51   +67 28.3    0.365    1.045    88.8    70.8    21.5
2001 12 02    16 39.00   +67 03.8    0.409    1.061    89.0    68.3    21.7
2001 12 07    16 33.10   +66 54.1    0.450    1.080    89.6    65.8    21.9
2001 12 12    16 28.03   +66 58.3    0.488    1.103    90.5    63.2    22.0
2001 12 17    16 23.15   +67 15.6    0.524    1.129    91.7    60.6    22.1

Timothy B. Spahr             (C) Copyright 2001 MPC           M.P.E.C. 2001-U35

Read MPEC 2001-U34 Read MPEC 2001-U36


Our Web policy. Index to the CBAT/MPC/ICQ pages.


Valid HTML 4.01!